Location: Newark
(50.0821°N, 8.2414°E)
Time: 03:14:02
(UTC+00:00)

ISS - Pass Details

Date: 25 July 2019
Orbit: 410 x 421 km, 51.6° (Epoch: 25 August)

Event Time Altitude Azimuth Distance (km) Brightness Sun altitude
Rises 23:02:47 0° 287° (WNW) 2,371 0.4 -20.0°
Reaches altitude 10° 23:04:59 10° 278° (W) 1,502 -0.8 -20.1°
Enters shadow 23:06:22 20° 263° (W) 1,021 -1.8 -20.1°
